Location: ??????
(36.0418°N, 43.6351°E)
Time: 22:24:18
(UTC+00:00)

OAO 3 Rocket - Pass Details

Date: 07 March 2021
Orbit: 629 x 682 km, 35.0° (Epoch: 18 April)

Event Time Altitude Azimuth Distance (km) Brightness Sun altitude
Exits shadow 01:28:36 70° 175° (S) 707 3.2 -24.8°
Maximum altitude 01:28:38 70° 171° (S) 707 3.2 -24.8°
Drops below altitude 10° 01:33:27 10° 87° (E) 2,066 6.8 -23.8°
Sets 01:35:48 0° 85° (E) 2,969 8.0 -23.4°
